"Pseudo-MPEC" for C0M8YW5

Created 2023 Nov 24 21:22:02 UT using Find_Orb

Click here for an explanation of pseudo-MPECs

 
 Astrometry: 
     C0M8YW5  C2023 10 19.40575403 21 29.189+25 30 24.84   ~BMDq 22.25GVNEOCPV00
     C0M8YW5  C2023 10 19.41253003 21 29.117+25 30 24.88   ~BMDq 22.03GVNEOCPV00
     C0M8YW5  C2023 10 19.41918203 21 29.020+25 30 24.91   ~BMDq 21.96GVNEOCPV00
     C0M8YW5  C2023 10 19.42578403 21 28.940+25 30 24.80   ~BMDq 22.62GVNEOCPV00
     C0M8YW5* C2023 11 11.32600903 15 53.867+25 25 45.01   ~BB8b 22.18GVNEOCPV00
     C0M8YW5  C2023 11 11.33213203 15 53.759+25 25 44.72   ~BB8b 21.87GVNEOCPV00
     C0M8YW5  C2023 11 11.33824203 15 53.680+25 25 44.47   ~BB8b 21.88GVNEOCPV00
     C0M8YW5  C2023 11 11.34435103 15 53.572+25 25 44.58   ~BB8b 20.90GVNEOCPV00
     C0M8YW5 KC2023 11 11.44265 03 15 52.01 +25 25 41.6    ~BBBq 22.5 RVNEOCP291
     C0M8YW5 KC2023 11 11.45132 03 15 51.90 +25 25 41.4    ~BBBq 22.8 RVNEOCP291
     C0M8YW5 KC2023 11 11.45998 03 15 51.74 +25 25 41.4    ~BBBq 22.8 RVNEOCP291
     C0M8YW5 KC2023 11 21.21081 03 13 19.89 +25 21 09.5    ~BLBq 22.5 GVNEOCP291
     C0M8YW5 KC2023 11 21.23707 03 13 19.49 +25 21 08.5    ~BLBq 22.7 GVNEOCP291
     C0M8YW5 KC2023 11 23.40056 03 12 46.21 +25 19 59.8    ~BNDq 22.2 RVNEOCP291
     C0M8YW5 KC2023 11 23.41334 03 12 46.01 +25 19 59.3    ~BNDq 22.0 RVNEOCP291
     C0M8YW5 KC2023 11 23.42620 03 12 45.82 +25 19 58.8    ~BNDq 22.4 RVNEOCP291

Station data:
(291) LPL/Spacewatch II  (N31.961669 W111.599905)  US/Arizona.  Observers J.
   V. Scotti, R. S. McMillan. 1.8-m f/2.7 reflector + CCD.
(V00) Kitt Peak-Bok  (N31.963125 W111.600190)  US/Arizona.  Observers T. A.
   Pruyne, B. M. Africano, E. J. Christensen, G. A. Farneth, D. C. Fuls, A.
   R. Gibbs, A. D. Grauer, H. Gröller, J. A. Johnson, R. A. Kowalski, S. M.
   Larson, G. J. Leonard, D. Rankin, R. L. Seaman, F. C. Shelly, K. W.
   Wierzchoś. 2.25-m reflector + 4x4K mosaic CCD.

Orbital elements:  C0M8YW5
   Perihelion 2026 Jul 10.15757 +/- 79.6 TT =  3:46:53 (JD 2461231.65757)
Epoch 2023 Nov 23.0 TT = JDT 2460271.5                           AutoNEOCP
M 350.82786574 +/- 0.8              (J2000 ecliptic)
n   0.00955273 +/- 0.000116         Peri.   47.84750 +/- 2.1
a  21.9980466 +/- 0.178             Node    32.48322 +/- 0.12
e   0.4453823 +/- 0.0052            Incl.   18.09405 +/- 0.10
P 103.18                   H 11.56  G  0.15   U  7.1
q 12.2005047 +/- 0.052    Q 31.7955886 +/- 0.363
From 16 observations 2023 Oct. 19-Nov. 23; mean residual 0".13
Residuals in arcseconds: 
231019 V00  .16-  .01-    231111 V00  .10+  .01+    231121 291  .05+  .18-    
231019 V00  .09+  .02+    231111 V00  .05-  .27+    231123 291  .00   .12+    
231019 V00  .02-  .05+    231111 291  .10-  .26-    231123 291  .03-  .05+    
231019 V00  .09+  .06-    231111 291  .26+  .24-    231123 291  .09+  .01-    
231111 V00  .00   .25+    231111 291  .06-  .02-    
231111 V00  .14-  .11+    231121 291  .12-  .01+    

Ephemerides (geocentric):
Date (UTC) HH   RA             Dec           delta  r     elong  mag " sig PA
---- --------  ------------   ------------  ------ ------ -----  --- --------
2023 11 24 21  03 12 23.791   +25 19 11.46  11.628 12.596 168.1 22.5 .170 158
2023 11 24 22  03 12 23.159   +25 19 10.07  11.628 12.596 168.1 22.5 .172 158
2023 11 24 23  03 12 22.527   +25 19 08.69  11.628 12.596 168.1 22.5 .173 158
2023 11 25 00  03 12 21.896   +25 19 07.31  11.628 12.596 168.0 22.5 .175 157
2023 11 25 01  03 12 21.264   +25 19 05.92  11.628 12.596 168.0 22.5 .176 157
2023 11 25 02  03 12 20.633   +25 19 04.53  11.628 12.596 168.0 22.5 .177 157
2023 11 25 03  03 12 20.002   +25 19 03.15  11.628 12.596 167.9 22.5 .179 157
2023 11 25 04  03 12 19.371   +25 19 01.76  11.629 12.596 167.9 22.5 .180 157
2023 11 25 05  03 12 18.740   +25 19 00.37  11.629 12.595 167.9 22.5 .182 156
2023 11 25 06  03 12 18.109   +25 18 58.98  11.629 12.595 167.8 22.5 .183 156
2023 11 25 07  03 12 17.478   +25 18 57.59  11.629 12.595 167.8 22.5 .185 156
2023 11 25 08  03 12 16.848   +25 18 56.20  11.629 12.595 167.8 22.5 .186 156
2023 11 25 09  03 12 16.218   +25 18 54.81  11.629 12.595 167.7 22.5 .188 156
2023 11 25 10  03 12 15.587   +25 18 53.41  11.629 12.595 167.7 22.5 .189 155
2023 11 25 11  03 12 14.957   +25 18 52.02  11.629 12.595 167.6 22.5 .191 155
2023 11 25 12  03 12 14.328   +25 18 50.62  11.629 12.595 167.6 22.5 .192 155
2023 11 25 13  03 12 13.698   +25 18 49.23  11.629 12.595 167.6 22.5 .194 155
2023 11 25 14  03 12 13.068   +25 18 47.83  11.630 12.595 167.5 22.5 .195 155
2023 11 25 15  03 12 12.439   +25 18 46.44  11.630 12.595 167.5 22.5 .197 154
2023 11 25 16  03 12 11.810   +25 18 45.04  11.630 12.595 167.5 22.5 .198 154
2023 11 25 17  03 12 11.181   +25 18 43.64  11.630 12.595 167.4 22.5 .200 154
2023 11 25 18  03 12 10.552   +25 18 42.24  11.630 12.595 167.4 22.5 .201 154
2023 11 25 19  03 12 09.923   +25 18 40.84  11.630 12.595 167.4 22.5 .203 154
2023 11 25 20  03 12 09.295   +25 18 39.44  11.630 12.595 167.3 22.5 .204 153
2023 11 25 21  03 12 08.666   +25 18 38.04  11.630 12.595 167.3 22.5 .206 153
2023 11 25 22  03 12 08.038   +25 18 36.63  11.630 12.595 167.2 22.5 .207 153
2023 11 25 23  03 12 07.410   +25 18 35.23  11.630 12.595 167.2 22.5 .209 153
2023 11 26 00  03 12 06.782   +25 18 33.83  11.631 12.595 167.2 22.5 .210 153
2023 11 26 01  03 12 06.154   +25 18 32.42  11.631 12.595 167.1 22.5 .212 153
2023 11 26 02  03 12 05.526   +25 18 31.02  11.631 12.595 167.1 22.5 .214 152
2023 11 26 03  03 12 04.899   +25 18 29.61  11.631 12.595 167.1 22.5 .215 152
2023 11 26 04  03 12 04.272   +25 18 28.20  11.631 12.595 167.0 22.5 .217 152
2023 11 26 05  03 12 03.645   +25 18 26.80  11.631 12.595 167.0 22.5 .218 152
2023 11 26 06  03 12 03.018   +25 18 25.39  11.631 12.595 166.9 22.5 .220 152
2023 11 26 07  03 12 02.391   +25 18 23.98  11.631 12.595 166.9 22.5 .222 151
2023 11 26 08  03 12 01.764   +25 18 22.57  11.631 12.595 166.9 22.5 .223 151
2023 11 26 09  03 12 01.138   +25 18 21.16  11.632 12.595 166.8 22.5 .225 151
2023 11 26 10  03 12 00.511   +25 18 19.74  11.632 12.595 166.8 22.5 .226 151
2023 11 26 11  03 11 59.885   +25 18 18.33  11.632 12.594 166.8 22.5 .228 151
2023 11 26 12  03 11 59.259   +25 18 16.92  11.632 12.594 166.7 22.5 .230 151
2023 11 26 13  03 11 58.634   +25 18 15.51  11.632 12.594 166.7 22.5 .231 150
2023 11 26 14  03 11 58.008   +25 18 14.09  11.632 12.594 166.6 22.5 .233 150
2023 11 26 15  03 11 57.382   +25 18 12.67  11.632 12.594 166.6 22.5 .235 150
2023 11 26 16  03 11 56.757   +25 18 11.26  11.632 12.594 166.6 22.5 .236 150
2023 11 26 17  03 11 56.132   +25 18 09.84  11.632 12.594 166.5 22.5 .238 150
2023 11 26 18  03 11 55.507   +25 18 08.42  11.633 12.594 166.5 22.5 .240 150
2023 11 26 19  03 11 54.882   +25 18 07.01  11.633 12.594 166.5 22.5 .241 149
2023 11 26 20  03 11 54.258   +25 18 05.59  11.633 12.594 166.4 22.5 .243 149